SIREN (RS30S) (53384 NORAD) Tracking and Keplerian Element Data

This shows tracking and keplerian element data for the satellite.

Feedback or suggestion? Click here.




ElementValue
Catalog53384
NameSIREN (RS30S)
Epoch Orbit10289
Epoch Day159.65689683
Epoch Year2024
RAAN80.3324
Inclination97.3867
Eccentricity0.0008314
Argument of Perigee136.0217
Mean Anonmoly224.1716
Mean Motion15.85144188
Decay Rate0.00363835
L11 53384U 22096Q 24159.65689683 .00363835 00000+0 14872-2 0 9995
L22 53384 97.3867 80.3324 0008314 136.0217 224.1716 15.85144188102899



Live tracking and technical data element details for SIREN (RS30S) (NORAD 53384). SIREN (RS30S) can be tracked NOW for your location showing map with azimuth and elevation plus other details from your city location.







IsCatalogInMostPopularTable: catalog: 53384, numindb: 46
Update: records affected: 1



GetName: 53384 SIREN (RS30S)

Hit Count: updated at: Thu, 23 Jan 2025 17:57:09 GMT